Back to catalog

INSAT 1B

AliveCommunicationsGEO
NORAD 14318·PAYLOAD·🇮🇳 India

Launched Aug 30, 1983 from Cape Canaveral Space Force Station

Loading…

TLE

FreshSource: Space-Track

Epoch: Sep 13, 2026, 20:51 UTC

1 14318U 83089B   26256.86902250  .00000124  00000-0  00000+0 0  9994
2 14318  11.0503 326.4582 0012960 242.4604 130.5685  1.00204125126102

Track INSAT 1B in real time with AllMySat

Download on the App Store